Location: Góry Miechowskie
(50.3599°N, 20.1803°E)
Time: 22:09:05
(UTC+00:00)

Transit 2A Rocket - Pass Details

Date: 18 September 2024
Orbit: 582 x 908 km, 66.7° (Epoch: 09 October)

Event Time Altitude Azimuth Distance (km) Brightness Sun altitude
Exits shadow 22:25:13 31° 22° (NNE) 1,537 6.9 -38.2°
Drops below altitude 10° 22:28:22 10° 34° (NNE) 2,593 8.2 -38.2°
Sets 22:30:55 0° 37° (NE) 3,520 9.0 -38.2°
